Location: Clermont
(50.2608°N, 4.3172°E)
Time: 16:32:43
(UTC+00:00)

Okean 1-7 - Pass Details

Date: 13 August 2020
Orbit: 590 x 619 km, 82.5° (Epoch: 19 September)

Event Time Altitude Azimuth Distance (km) Brightness Sun altitude
Rises 20:27:03 0° 355° (N) 2,876 7.2 -11.9°
Reaches altitude 10° 20:29:24 10° 2° (N) 1,962 6.2 -12.2°
Maximum altitude 20:33:31 42° 74° (ENE) 869 3.6 -12.7°
Enters shadow 20:36:02 20° 135° (SE) 1,379 4.2 -13.0°
